Simultaneous Nadir Overpasses (SNOs) Predictions

Prediction of SNOs between GOES-15 and LANDSAT-8 Satellite Orbit:

Table of predicted SNOs for the next 14.0 days since TLE Epoch: 5/18/2024
Index Date Time (GOES-15) GOES-15 Lat,Lon LANDSAT-8 Lat,Lon Distance(km) Time Diff (sec)
1 05/18/2024 17:52:40 0.18, 61.70 0.69, 64.26 289.97 80
2 05/19/2024 06:16:36 -0.17, 61.73 0.37, 59.09 299.35 80
3 05/21/2024 06:01:43 -0.17, 61.77 -0.21, 62.06 31.88 80
4 05/23/2024 05:49:31 -0.17, 61.82 -0.88, 65.00 362.42 80
5 05/23/2024 18:13:34 0.16, 61.82 -0.27, 59.82 227.36 80
6 05/25/2024 17:58:41 0.17, 61.88 0.39, 62.78 102.59 80
7 05/26/2024 06:22:35 -0.15, 61.91 0.76, 57.63 486.80 80
8 05/27/2024 17:46:26 0.18, 61.95 0.97, 65.75 432.04 80
9 05/28/2024 06:10:21 -0.17, 61.98 0.11, 60.59 157.39 80
10 05/30/2024 05:55:26 -0.18, 62.05 -0.51, 63.56 172.12 80
11 05/30/2024 18:19:29 0.16, 62.05 -0.60, 58.37 417.97 80
